Regional Weather Roundup
Issued by NWS

Home | Current Version | Previous Version | Graphics & Text | Print | Product List | Glossary On
Versions: 1 2 3 4 5 6 7 8 9 10 11 12 13 14 15 16 17 18 19 20 21 22 23 24 25 26 27 28 29 30 31 32 33 34 35 36 37 38 39 40 41 42 43 44 45 46 47 48 49
000
ASUS43 KDMX 271307
RWRIA

WEATHER ROUNDUP FOR IOWA
NATIONAL WEATHER SERVICE DES MOINES IA
800 AM CDT WED MAY 27 2015

NOTE: "FAIR" INDICATES FEW OR NO CLOUDS BELOW 12,000 FEET WITH NO
SIGNIFICANT WEATHER AND/OR OBSTRUCTIONS TO VISIBILITY.

* - THESE STATIONS ARE NOT NWS STATIONS...THUS NOT UNDER NWS
QUALITY CONTROL.  THEY ALSO DO NOT REPORT WEATHER SUCH
AS PRECIPITATION OR FOG.

IAZ001>003-012>014-020>022-031>034-043>046-271400-
   NORTHWEST IOWA

CITY           SKY/WX    TMP DP  RH WIND       PRES   REMARKS
CARROLL *      SUNNY     61  57  88 W5        30.01R
CHEROKEE *     SUNNY     55  55 100 CALM      30.00R
DENISON *      SUNNY     57  57 100 CALM      30.01R
LE MARS *      SUNNY     59  55  88 CALM      30.01S
ORANGE CITY *  SUNNY     57  54  88 NW3       30.00R
SHELDON *      SUNNY     57  55  94 W6        29.99R
SIOUX CITY     SUNNY     59  53  80 CALM      30.01R
SPENCER        SUNNY     58  54  86 W7        29.99R
STORM LAKE *   SUNNY     59  55  88 W10       30.00S
$$

IAZ055>058-069>071-079>083-090>094-271400-
   SOUTHWEST IOWA

CITY           SKY/WX    TMP DP  RH WIND       PRES   REMARKS
ATLANTIC *     SUNNY     59  57  94 S3        30.03R
AUDUBON *      SUNNY     61  55  82 CALM      30.03R
CLARINDA *     SUNNY     63  55  77 CALM      30.06
COUNCIL BLFS * SUNNY     59  59 100 SW7       30.04R
CRESTON *      SUNNY     61  59  94 W7        30.03R
HARLAN  *      SUNNY     59  59 100 CALM      30.07R
LAMONI         SUNNY     64  57  78 W7        30.03R
RED OAK *      SUNNY     61  57  88 CALM      30.05R
SHENANDOAH *   SUNNY     61  55  82 CALM      30.05R
$$

IAZ047>049-059>061-072>074-084-271400-
   CENTRAL IOWA

CITY           SKY/WX    TMP DP  RH WIND       PRES   REMARKS
AMES           SUNNY     61  57  87 NW6       29.99S
ANKENY *       SUNNY     61  57  88 VRB6      30.00R
CHARITON *     SUNNY     61  55  82 NW8       30.02R
DES MOINES     MOSUNNY   62  55  77 W6        30.00S
GRINNELL*      MOSUNNY   61  57  88 W9        30.01R
KNOXVILLE *    SUNNY     61  55  82 W9        30.00S
MARSHALLTOWN   SUNNY     60  57  89 W9        29.99R
PELLA *        PTSUNNY   61  61 100 W6        30.02R
PERRY *          N/A     61  55  82 W8        30.01R
$$

IAZ004>006-015-016-023>025-035-036-271400-
   NORTH CENTRAL IOWA

CITY           SKY/WX    TMP DP  RH WIND       PRES   REMARKS
ALGONA *       SUNNY     61  59  94 W7        29.98S
CLARION *      SUNNY     61 N/A N/A W5        29.99R
ESTHERVILLE    MOSUNNY   58  54  86 W10       29.96S
FORT DODGE *   MOSUNNY   61  55  82 SW5       30.01R
MASON CITY     MOSUNNY   60  57  89 W12       29.99R
FOREST CITY *  SUNNY     59  55  88 W5        29.98S
IOWA FALLS *     N/A     61  57  88 W9        30.00S
$$

IAZ007>011-017>019-026>030-037>042-050>054-066-271400-
   NORTHEAST IOWA

CITY           SKY/WX    TMP DP  RH WIND       PRES   REMARKS
CEDAR RAPIDS   PTSUNNY   61  59  93 W14       29.97R
CHARLES CITY * MOSUNNY   59  59 100 W7G14     29.98R
CLINTON *      MOSUNNY   63  57  82 W16       29.97R
DECORAH *      MOSUNNY   59  57  94 W6        29.95R FOG
DUBUQUE        CLOUDY    60  57  89 W12       29.95R
MONTICELLO *   CLOUDY    61  61 100 W14       29.97R
OELWEIN *      MOSUNNY   59  57  94 W7G14     29.97S
WATERLOO       MOSUNNY   60  57  89 W7        29.97R
$$

IAZ064-065-067-068-078-271400-
   EAST CENTRAL IOWA

CITY           SKY/WX    TMP DP  RH WIND       PRES   REMARKS
DAVENPORT      CLOUDY    62  59  90 SW12      29.98R
IOWA CITY      PTSUNNY   63  59  87 W7        30.00R
MT. PLEASANT * MOSUNNY   63  59  88 W9        30.00R
MUSCATINE *    MOSUNNY   64  59  82 W10       29.99R
QUAD CITIES    CLOUDY    64  59  83 W10       29.97R
$$

IAZ062-063-075>077-085>089-095>099-271400-
   SOUTHEAST IOWA

CITY           SKY/WX    TMP DP  RH WIND       PRES   REMARKS
BURLINGTON     SUNNY     65  60  84 W10       29.99R
FAIRFIELD *    PTSUNNY   61  57  88 W7G13     30.01R
FORT MADISON * SUNNY     64  61  88 W9        30.00R
KEOKUK *       SUNNY     64  59  82 W8G14     30.00R
OSKALOOSA *      N/A     61  57  88 W9        30.01R
CENTERVILLE *  SUNNY     63  63 100 W7        30.04S
OTTUMWA        SUNNY     62  58  86 W7        29.99S
WASHINGTON *   PTSUNNY   63  61  94 W9        30.01R
$$

ABBREVIATIONS USED IN REMARKS
   TC - TEMPERATURES IN CELSIUS
  WCI - WIND CHILL INDEX
   HX - HEAT INDEX
  VSB - VISIBILITY
$$



USA.gov is the U.S. government's official web portal to all federal, state and local government web resources and services.